Wetterdaten: Dienstag, 17.03.2015
Datum Zeit Temp. A. Feuchte A. Luftdruck Regen Wind Richtung Richtung Sonnenschein ET UV Solar Taupunkt Windchill Windben Empfang
17.03.2015 00:00 7,4 C 55 % 1025,9 hPa 0,0 l/m 7,2 km/h (2 Bft) S 172 0 min 0,000 mm 0,0 UV-I 0 W/m -1,0 C 6,8 C 11,9 km/h (2 Bft) 0,00 %
17.03.2015 00:15 7,4 C 57 % 1026,0 hPa 0,0 l/m 3,2 km/h (1 Bft) O 98 0 min 0,000 mm 0,0 UV-I 0 W/m -0,5 C 7,4 C 7,9 km/h (2 Bft) 0,00 %
17.03.2015 00:30 7,2 C 57 % 1026,0 hPa 0,0 l/m 1,4 km/h (1 Bft) SO 125 0 min 0,000 mm 0,0 UV-I 0 W/m -0,7 C 7,2 C 4,0 km/h (1 Bft) 0,00 %
17.03.2015 00:45 7,3 C 57 % 1025,9 hPa 0,0 l/m 9,4 km/h (2 Bft) SO 139 0 min 0,000 mm 0,0 UV-I 0 W/m -0,6 C 5,0 C 11,9 km/h (2 Bft) 0,00 %
17.03.2015 01:00 7,5 C 55 % 1026,1 hPa 0,0 l/m 9,7 km/h (2 Bft) O-SO 123 0 min 0,000 mm 0,0 UV-I 0 W/m -0,9 C 5,0 C 11,9 km/h (2 Bft) 0,00 %
17.03.2015 01:15 7,5 C 56 % 1025,7 hPa 0,0 l/m 4,3 km/h (1 Bft) O-SO 111 0 min 0,000 mm 0,0 UV-I 0 W/m -0,7 C 7,5 C 7,9 km/h (2 Bft) 0,00 %
17.03.2015 01:30 7,3 C 58 % 1025,7 hPa 0,0 l/m 5,8 km/h (2 Bft) S 183 0 min 0,000 mm 0,0 UV-I 0 W/m -0,4 C 7,3 C 11,9 km/h (2 Bft) 0,00 %
17.03.2015 01:45 7,4 C 58 % 1025,5 hPa 0,0 l/m 2,9 km/h (1 Bft) S 172 0 min 0,000 mm 0,0 UV-I 0 W/m -0,3 C 7,4 C 7,9 km/h (2 Bft) 0,00 %
17.03.2015 02:00 7,4 C 58 % 1025,5 hPa 0,0 l/m 11,5 km/h (2 Bft) SO 130 0 min 0,000 mm 0,0 UV-I 0 W/m -0,3 C 3,8 C 11,9 km/h (2 Bft) 0,00 %
17.03.2015 02:15 7,4 C 57 % 1025,3 hPa 0,0 l/m 5,8 km/h (2 Bft) O 86 0 min 0,000 mm 0,0 UV-I 0 W/m -0,5 C 7,4 C 11,9 km/h (2 Bft) 0,00 %
17.03.2015 02:30 7,6 C 58 % 1025,1 hPa 0,0 l/m 4,3 km/h (1 Bft) N-NO 28 0 min 0,000 mm 0,0 UV-I 0 W/m -0,1 C 7,6 C 7,9 km/h (2 Bft) 0,00 %
17.03.2015 02:45 7,6 C 58 % 1025,2 hPa 0,0 l/m 6,8 km/h (2 Bft) O 93 0 min 0,000 mm 0,0 UV-I 0 W/m -0,1 C 7,3 C 11,9 km/h (2 Bft) 0,00 %
17.03.2015 03:00 7,8 C 57 % 1025,2 hPa 0,0 l/m 13,0 km/h (3 Bft) SO 135 0 min 0,000 mm 0,0 UV-I 0 W/m -0,2 C 3,4 C 19,8 km/h (3 Bft) 0,00 %
17.03.2015 03:15 7,8 C 57 % 1025,3 hPa 0,0 l/m 11,9 km/h (2 Bft) O 82 0 min 0,000 mm 0,0 UV-I 0 W/m -0,2 C 4,0 C 15,8 km/h (3 Bft) 0,00 %
17.03.2015 03:30 7,9 C 57 % 1025,4 hPa 0,0 l/m 12,2 km/h (2 Bft) O-SO 106 0 min 0,000 mm 0,0 UV-I 0 W/m -0,1 C 4,0 C 15,8 km/h (3 Bft) 0,00 %
17.03.2015 03:45 7,9 C 56 % 1025,5 hPa 0,0 l/m 12,2 km/h (2 Bft) O-SO 108 0 min 0,000 mm 0,0 UV-I 0 W/m -0,3 C 4,0 C 15,8 km/h (3 Bft) 0,00 %
17.03.2015 04:00 7,9 C 57 % 1025,2 hPa 0,0 l/m 13,3 km/h (3 Bft) SO 129 0 min 0,000 mm 0,0 UV-I 0 W/m -0,1 C 3,4 C 19,8 km/h (3 Bft) 0,00 %
17.03.2015 04:15 7,8 C 58 % 1025,2 hPa 0,0 l/m 8,3 km/h (2 Bft) O 98 0 min 0,000 mm 0,0 UV-I 0 W/m 0,1 C 6,3 C 11,9 km/h (2 Bft) 0,00 %
17.03.2015 04:30 8,1 C 56 % 1025,4 hPa 0,0 l/m 2,9 km/h (1 Bft) SO 129 0 min 0,000 mm 0,0 UV-I 0 W/m -0,1 C 8,1 C 4,0 km/h (1 Bft) 0,00 %
17.03.2015 04:45 8,1 C 56 % 1025,4 hPa 0,0 l/m 5,8 km/h (2 Bft) W-NW 296 0 min 0,000 mm 0,0 UV-I 0 W/m -0,1 C 8,1 C 11,9 km/h (2 Bft) 0,00 %
17.03.2015 05:00 8,1 C 57 % 1025,3 hPa 0,0 l/m 19,8 km/h (3 Bft) O-SO 112 0 min 0,000 mm 0,0 UV-I 0 W/m 0,1 C 0,9 C 24,1 km/h (4 Bft) 0,00 %
17.03.2015 05:15 7,9 C 58 % 1025,6 hPa 0,0 l/m 14,0 km/h (3 Bft) O 91 0 min 0,000 mm 0,0 UV-I 0 W/m 0,2 C 3,1 C 15,8 km/h (3 Bft) 0,00 %
17.03.2015 05:30 7,3 C 60 % 1025,8 hPa 0,0 l/m 9,7 km/h (2 Bft) SO 141 0 min 0,000 mm 0,0 UV-I 0 W/m 0,1 C 4,8 C 15,8 km/h (3 Bft) 0,00 %
17.03.2015 05:45 7,0 C 60 % 1025,9 hPa 0,0 l/m 7,2 km/h (2 Bft) O 90 0 min 0,000 mm 0,0 UV-I 0 W/m -0,2 C 6,3 C 11,9 km/h (2 Bft) 0,00 %
17.03.2015 06:00 7,0 C 59 % 1026,0 hPa 0,0 l/m 11,5 km/h (2 Bft) O 100 0 min 0,000 mm 0,0 UV-I 0 W/m -0,5 C 3,3 C 19,8 km/h (3 Bft) 0,00 %
17.03.2015 06:15 7,2 C 59 % 1026,1 hPa 0,0 l/m 13,0 km/h (3 Bft) O 83 0 min 0,000 mm 0,0 UV-I 0 W/m -0,3 C 2,7 C 15,8 km/h (3 Bft) 0,00 %
17.03.2015 06:30 6,9 C 60 % 1026,4 hPa 0,0 l/m 5,8 km/h (2 Bft) SO 132 0 min 0,000 mm 0,0 UV-I 6 W/m -0,3 C 6,9 C 11,9 km/h (2 Bft) 0,00 %
17.03.2015 06:45 7,0 C 60 % 1026,2 hPa 0,0 l/m 11,9 km/h (2 Bft) O-NO 59 0 min 0,000 mm 0,0 UV-I 31 W/m -0,2 C 3,1 C 15,8 km/h (3 Bft) 0,00 %
17.03.2015 07:00 7,1 C 59 % 1026,3 hPa 0,0 l/m 11,9 km/h (2 Bft) O-SO 122 0 min 0,000 mm 1,0 UV-I 55 W/m -0,4 C 3,2 C 15,8 km/h (3 Bft) 0,00 %
17.03.2015 07:15 7,4 C 59 % 1026,4 hPa 0,0 l/m 13,0 km/h (3 Bft) W-SW 252 0 min 0,000 mm 1,0 UV-I 73 W/m -0,1 C 3,0 C 19,8 km/h (3 Bft) 0,00 %
17.03.2015 07:30 7,6 C 57 % 1026,2 hPa 0,0 l/m 20,9 km/h (4 Bft) O-SO 118 0 min 0,000 mm 1,0 UV-I 87 W/m -0,4 C -0,1 C 24,1 km/h (4 Bft) 0,00 %
17.03.2015 07:45 7,8 C 57 % 1026,3 hPa 0,0 l/m 15,5 km/h (3 Bft) O 101 0 min 0,000 mm 1,0 UV-I 100 W/m -0,2 C 2,2 C 19,8 km/h (3 Bft) 0,00 %
17.03.2015 08:00 8,0 C 56 % 1026,4 hPa 0,0 l/m 9,4 km/h (2 Bft) S-SW 198 0 min 0,000 mm 1,0 UV-I 115 W/m -0,2 C 5,8 C 11,9 km/h (2 Bft) 0,00 %
17.03.2015 08:15 8,3 C 55 % 1026,3 hPa 0,0 l/m 15,8 km/h (3 Bft) O 98 0 min 0,000 mm 1,0 UV-I 131 W/m -0,2 C 2,7 C 19,8 km/h (3 Bft) 0,00 %
17.03.2015 08:30 8,8 C 53 % 1026,3 hPa 0,0 l/m 19,1 km/h (3 Bft) O-SO 105 0 min 0,000 mm 2,0 UV-I 138 W/m -0,2 C 2,1 C 19,8 km/h (3 Bft) 0,00 %
17.03.2015 08:45 9,2 C 52 % 1026,3 hPa 0,0 l/m 11,9 km/h (2 Bft) O 86 0 min 0,000 mm 2,0 UV-I 141 W/m -0,1 C 5,6 C 15,8 km/h (3 Bft) 0,00 %
17.03.2015 09:00 9,7 C 51 % 1026,2 hPa 0,0 l/m 17,3 km/h (3 Bft) O-SO 123 0 min 0,000 mm 2,0 UV-I 152 W/m 0,1 C 3,9 C 19,8 km/h (3 Bft) 0,00 %
17.03.2015 09:15 9,9 C 52 % 1026,1 hPa 0,0 l/m 20,9 km/h (4 Bft) O 81 0 min 0,000 mm 2,0 UV-I 187 W/m 0,5 C 2,9 C 32,0 km/h (5 Bft) 0,00 %
17.03.2015 09:30 9,6 C 51 % 1026,1 hPa 0,0 l/m 14,8 km/h (3 Bft) O 87 0 min 0,000 mm 2,0 UV-I 154 W/m -0,0 C 4,7 C 19,8 km/h (3 Bft) 0,00 %
17.03.2015 09:45 9,9 C 51 % 1026,2 hPa 0,0 l/m 17,3 km/h (3 Bft) O-SO 112 0 min 0,000 mm 2,0 UV-I 175 W/m 0,2 C 4,1 C 24,1 km/h (4 Bft) 0,00 %
17.03.2015 10:00 10,2 C 52 % 1025,9 hPa 0,0 l/m 19,4 km/h (3 Bft) O 81 0 min 0,000 mm 3,0 UV-I 216 W/m 0,8 C 3,7 C 24,1 km/h (4 Bft) 0,00 %
17.03.2015 10:15 10,6 C 49 % 1026,0 hPa 0,0 l/m 24,1 km/h (4 Bft) O 101 0 min 0,000 mm 3,0 UV-I 282 W/m 0,3 C 2,9 C 36,0 km/h (5 Bft) 0,00 %
17.03.2015 10:30 10,6 C 50 % 1026,0 hPa 0,0 l/m 25,9 km/h (4 Bft) O-SO 118 0 min 0,000 mm 3,0 UV-I 289 W/m 0,6 C 2,4 C 28,1 km/h (4 Bft) 0,00 %
17.03.2015 10:45 10,5 C 50 % 1026,0 hPa 0,0 l/m 18,0 km/h (3 Bft) O-SO 111 0 min 0,000 mm 3,0 UV-I 333 W/m 0,5 C 4,6 C 24,1 km/h (4 Bft) 0,00 %
17.03.2015 11:00 10,7 C 49 % 1026,1 hPa 0,0 l/m 24,8 km/h (4 Bft) SO 139 0 min 0,000 mm 3,0 UV-I 316 W/m 0,4 C 2,8 C 32,0 km/h (5 Bft) 0,00 %
17.03.2015 11:15 11,0 C 50 % 1025,8 hPa 0,0 l/m 29,5 km/h (5 Bft) O 85 0 min 0,000 mm 3,0 UV-I 285 W/m 1,0 C 2,2 C 44,3 km/h (6 Bft) 0,00 %
17.03.2015 11:30 11,2 C 49 % 1025,7 hPa 0,0 l/m 20,5 km/h (4 Bft) O-SO 103 0 min 0,000 mm 3,0 UV-I 320 W/m 0,9 C 4,7 C 24,1 km/h (4 Bft) 0,00 %
17.03.2015 11:45 11,5 C 48 % 1025,3 hPa 0,0 l/m 19,1 km/h (3 Bft) O-NO 75 0 min 0,000 mm 3,0 UV-I 294 W/m 0,9 C 5,5 C 28,1 km/h (4 Bft) 0,00 %
17.03.2015 12:00 11,7 C 48 % 1025,1 hPa 0,0 l/m 19,8 km/h (3 Bft) O 93 0 min 0,000 mm 3,0 UV-I 241 W/m 1,1 C 5,5 C 28,1 km/h (4 Bft) 0,00 %
17.03.2015 12:15 12,1 C 48 % 1024,9 hPa 0,0 l/m 24,1 km/h (4 Bft) O 94 0 min 0,000 mm 4,0 UV-I 258 W/m 1,4 C 4,9 C 28,1 km/h (4 Bft) 0,00 %
17.03.2015 12:30 12,4 C 48 % 1024,5 hPa 0,0 l/m 13,3 km/h (3 Bft) O 92 15 min 0,000 mm 3,0 UV-I 425 W/m 1,7 C 8,7 C 15,8 km/h (3 Bft) 0,00 %
17.03.2015 12:45 12,5 C 47 % 1024,3 hPa 0,0 l/m 16,9 km/h (3 Bft) O-SO 107 0 min 0,000 mm 3,0 UV-I 266 W/m 1,5 C 7,5 C 19,8 km/h (3 Bft) 0,00 %
17.03.2015 13:00 12,9 C 44 % 1023,9 hPa 0,0 l/m 24,1 km/h (4 Bft) O 93 0 min 0,000 mm 3,0 UV-I 237 W/m 1,0 C 6,0 C 32,0 km/h (5 Bft) 0,00 %
17.03.2015 13:15 13,4 C 42 % 1024,0 hPa 0,0 l/m 24,8 km/h (4 Bft) O-SO 108 0 min 0,000 mm 3,0 UV-I 242 W/m 0,8 C 6,5 C 32,0 km/h (5 Bft) 0,00 %
17.03.2015 13:30 13,8 C 43 % 1023,5 hPa 0,0 l/m 18,0 km/h (3 Bft) SO 128 0 min 0,000 mm 2,0 UV-I 231 W/m 1,4 C 8,8 C 24,1 km/h (4 Bft) 0,00 %
17.03.2015 13:45 14,0 C 42 % 1023,4 hPa 0,0 l/m 21,6 km/h (4 Bft) O-SO 105 0 min 0,000 mm 2,0 UV-I 217 W/m 1,3 C 8,0 C 32,0 km/h (5 Bft) 0,00 %
17.03.2015 14:00 14,1 C 42 % 1023,2 hPa 0,0 l/m 25,9 km/h (4 Bft) O-SO 110 0 min 0,000 mm 2,0 UV-I 195 W/m 1,4 C 7,2 C 28,1 km/h (4 Bft) 0,00 %
17.03.2015 14:15 14,2 C 42 % 1023,2 hPa 0,0 l/m 16,6 km/h (3 Bft) O-NO 63 0 min 0,000 mm 2,0 UV-I 187 W/m 1,5 C 9,7 C 24,1 km/h (4 Bft) 0,00 %
17.03.2015 14:30 14,2 C 38 % 1023,0 hPa 0,0 l/m 32,0 km/h (5 Bft) O-SO 104 0 min 0,000 mm 2,0 UV-I 169 W/m 0,1 C 6,2 C 36,0 km/h (5 Bft) 0,00 %
17.03.2015 14:45 14,2 C 37 % 1023,1 hPa 0,0 l/m 23,0 km/h (4 Bft) O 95 0 min 0,000 mm 2,0 UV-I 157 W/m -0,3 C 8,0 C 28,1 km/h (4 Bft) 0,00 %
17.03.2015 15:00 14,1 C 36 % 1022,8 hPa 0,0 l/m 24,1 km/h (4 Bft) O 98 0 min 0,000 mm 2,0 UV-I 148 W/m -0,7 C 7,6 C 28,1 km/h (4 Bft) 0,00 %
17.03.2015 15:15 14,1 C 37 % 1022,6 hPa 0,0 l/m 12,2 km/h (2 Bft) NO 52 0 min 0,000 mm 2,0 UV-I 127 W/m -0,4 C 11,2 C 19,8 km/h (3 Bft) 0,00 %
17.03.2015 15:30 14,1 C 40 % 1022,5 hPa 0,0 l/m 23,4 km/h (4 Bft) O-SO 117 0 min 0,000 mm 1,0 UV-I 142 W/m 0,7 C 7,7 C 32,0 km/h (5 Bft) 0,00 %
17.03.2015 15:45 14,0 C 38 % 1022,4 hPa 0,0 l/m 18,4 km/h (3 Bft) S-SO 148 0 min 0,000 mm 1,0 UV-I 142 W/m -0,1 C 8,9 C 28,1 km/h (4 Bft) 0,00 %
17.03.2015 16:00 14,0 C 42 % 1022,3 hPa 0,0 l/m 13,3 km/h (3 Bft) O 99 15 min 0,000 mm 1,0 UV-I 459 W/m 1,3 C 10,6 C 19,8 km/h (3 Bft) 0,00 %
17.03.2015 16:15 13,6 C 41 % 1022,4 hPa 0,0 l/m 14,4 km/h (3 Bft) O 93 15 min 0,000 mm 1,0 UV-I 423 W/m 0,6 C 9,7 C 19,8 km/h (3 Bft) 0,00 %
17.03.2015 16:30 13,4 C 43 % 1022,4 hPa 0,0 l/m 8,3 km/h (2 Bft) O-SO 119 15 min 0,000 mm 1,0 UV-I 286 W/m 1,1 C 12,2 C 19,8 km/h (3 Bft) 0,00 %
17.03.2015 16:45 13,1 C 44 % 1022,4 hPa 0,0 l/m 14,0 km/h (3 Bft) O-SO 105 15 min 0,000 mm 1,0 UV-I 325 W/m 1,1 C 9,3 C 19,8 km/h (3 Bft) 0,00 %
17.03.2015 17:00 12,8 C 44 % 1022,7 hPa 0,0 l/m 14,0 km/h (3 Bft) S-SO 168 15 min 0,000 mm 1,0 UV-I 273 W/m 0,9 C 8,9 C 15,8 km/h (3 Bft) 0,00 %
17.03.2015 17:15 12,4 C 45 % 1022,4 hPa 0,0 l/m 13,0 km/h (3 Bft) O 97 15 min 0,000 mm 0,0 UV-I 152 W/m 0,8 C 8,8 C 24,1 km/h (4 Bft) 0,00 %
17.03.2015 17:30 12,0 C 46 % 1022,7 hPa 0,0 l/m 14,4 km/h (3 Bft) O-SO 110 0 min 0,000 mm 0,0 UV-I 51 W/m 0,7 C 7,8 C 15,8 km/h (3 Bft) 0,00 %
17.03.2015 17:45 11,4 C 48 % 1023,1 hPa 0,0 l/m 9,7 km/h (2 Bft) O-SO 120 0 min 0,000 mm 0,0 UV-I 20 W/m 0,8 C 9,3 C 15,8 km/h (3 Bft) 0,00 %
17.03.2015 18:00 11,0 C 48 % 1023,1 hPa 0,0 l/m 15,8 km/h (3 Bft) O 95 0 min 0,000 mm 0,0 UV-I 3 W/m 0,4 C 6,0 C 19,8 km/h (3 Bft) 0,00 %
17.03.2015 18:15 10,7 C 48 % 1023,0 hPa 0,0 l/m 10,4 km/h (2 Bft) NO 45 0 min 0,000 mm 0,0 UV-I 0 W/m 0,1 C 8,1 C 11,9 km/h (2 Bft) 0,00 %
17.03.2015 18:30 10,3 C 50 % 1023,3 hPa 0,0 l/m 17,3 km/h (3 Bft) O-SO 103 0 min 0,000 mm 0,0 UV-I 0 W/m 0,3 C 4,6 C 24,1 km/h (4 Bft) 0,00 %
17.03.2015 18:45 10,0 C 50 % 1023,6 hPa 0,0 l/m 15,8 km/h (3 Bft) O-SO 112 0 min 0,000 mm 0,0 UV-I 0 W/m 0,1 C 4,8 C 19,8 km/h (3 Bft) 0,00 %
17.03.2015 19:00 9,7 C 50 % 1023,6 hPa 0,0 l/m 11,9 km/h (2 Bft) SO 131 0 min 0,000 mm 0,0 UV-I 0 W/m -0,2 C 6,2 C 19,8 km/h (3 Bft) 0,00 %
17.03.2015 19:15 9,3 C 51 % 1023,7 hPa 0,0 l/m 6,8 km/h (2 Bft) O-SO 102 0 min 0,000 mm 0,0 UV-I 0 W/m -0,3 C 9,0 C 7,9 km/h (2 Bft) 0,00 %
17.03.2015 19:30 9,0 C 52 % 1023,7 hPa 0,0 l/m 18,0 km/h (3 Bft) SO 132 0 min 0,000 mm 0,0 UV-I 0 W/m -0,3 C 2,7 C 24,1 km/h (4 Bft) 0,00 %
17.03.2015 19:45 8,6 C 52 % 1023,7 hPa 0,0 l/m 12,2 km/h (2 Bft) O-SO 102 0 min 0,000 mm 0,0 UV-I 0 W/m -0,7 C 4,8 C 15,8 km/h (3 Bft) 0,00 %
17.03.2015 20:00 8,4 C 53 % 1023,9 hPa 0,0 l/m 13,3 km/h (3 Bft) O 94 0 min 0,000 mm 0,0 UV-I 0 W/m -0,6 C 4,0 C 19,8 km/h (3 Bft) 0,00 %
17.03.2015 20:15 8,1 C 54 % 1024,1 hPa 0,0 l/m 18,0 km/h (3 Bft) O 93 0 min 0,000 mm 0,0 UV-I 0 W/m -0,6 C 1,6 C 24,1 km/h (4 Bft) 0,00 %
17.03.2015 20:30 7,7 C 54 % 1024,0 hPa 0,0 l/m 7,9 km/h (2 Bft) O-SO 107 0 min 0,000 mm 0,0 UV-I 0 W/m -1,0 C 6,5 C 11,9 km/h (2 Bft) 0,00 %
17.03.2015 20:45 7,5 C 54 % 1023,8 hPa 0,0 l/m 13,3 km/h (3 Bft) SO 141 0 min 0,000 mm 0,0 UV-I 0 W/m -1,2 C 2,9 C 19,8 km/h (3 Bft) 0,00 %
17.03.2015 21:00 7,3 C 54 % 1023,9 hPa 0,0 l/m 2,9 km/h (1 Bft) S 175 0 min 0,000 mm 0,0 UV-I 0 W/m -1,4 C 7,3 C 4,0 km/h (1 Bft) 0,00 %
17.03.2015 21:15 7,1 C 54 % 1024,1 hPa 0,0 l/m 13,3 km/h (3 Bft) O 80 0 min 0,000 mm 0,0 UV-I 0 W/m -1,6 C 2,5 C 15,8 km/h (3 Bft) 0,00 %
17.03.2015 21:30 6,9 C 55 % 1024,2 hPa 0,0 l/m 5,8 km/h (2 Bft) SO 137 0 min 0,000 mm 0,0 UV-I 0 W/m -1,5 C 6,9 C 11,9 km/h (2 Bft) 0,00 %
17.03.2015 21:45 6,7 C 54 % 1024,3 hPa 0,0 l/m 3,2 km/h (1 Bft) S 176 0 min 0,000 mm 0,0 UV-I 0 W/m -1,9 C 6,7 C 4,0 km/h (1 Bft) 0,00 %
17.03.2015 22:00 6,4 C 57 % 1024,5 hPa 0,0 l/m 14,0 km/h (3 Bft) O-SO 106 0 min 0,000 mm 0,0 UV-I 0 W/m -1,5 C 1,3 C 15,8 km/h (3 Bft) 0,00 %
17.03.2015 22:15 6,2 C 58 % 1024,4 hPa 0,0 l/m 4,0 km/h (1 Bft) O-NO 77 0 min 0,000 mm 0,0 UV-I 0 W/m -1,4 C 6,2 C 7,9 km/h (2 Bft) 0,00 %
17.03.2015 22:30 5,9 C 58 % 1024,2 hPa 0,0 l/m 9,7 km/h (2 Bft) O 84 0 min 0,000 mm 0,0 UV-I 0 W/m -1,7 C 3,3 C 11,9 km/h (2 Bft) 0,00 %
17.03.2015 22:45 5,9 C 59 % 1024,3 hPa 0,0 l/m 7,2 km/h (2 Bft) O-SO 115 0 min 0,000 mm 0,0 UV-I 0 W/m -1,5 C 5,2 C 11,9 km/h (2 Bft) 0,00 %
17.03.2015 23:00 5,8 C 59 % 1024,3 hPa 0,0 l/m 9,4 km/h (2 Bft) O-SO 107 0 min 0,000 mm 0,0 UV-I 0 W/m -1,6 C 3,4 C 11,9 km/h (2 Bft) 0,00 %
17.03.2015 23:15 5,4 C 60 % 1024,2 hPa 0,0 l/m 1,4 km/h (1 Bft) SO 134 0 min 0,000 mm 0,0 UV-I 0 W/m -1,7 C 5,4 C 4,0 km/h (1 Bft) 0,00 %
17.03.2015 23:30 5,0 C 61 % 1024,1 hPa 0,0 l/m 2,2 km/h (1 Bft) O-SO 107 0 min 0,000 mm 0,0 UV-I 0 W/m -1,9 C 5,0 C 4,0 km/h (1 Bft) 0,00 %
_ Min-Zeit 23:30 15:00 16:00 - 00:30 - - - - - - 21:45 07:30 00:30 00:00
Minimum _ 5,0 C 36 % 1022,3 hPa - 1,4 km/h (1 Bft) - - - - - - -1,9 C -0,1 C 4,0 km/h (1 Bft) 0,00 %
_ Max-Zeit 14:15 23:30 06:30 00:00 14:30 - - 12:30 00:00 12:15 16:00 12:30 16:30 11:15 00:00
Maximum _ 14,2 C 61 % 1026,4 hPa 0,0 l/m 32,0 km/h
O-SO (5 Bft)
- - 15 min 0,000 mm 4,0 UV-I 459 W/m 1,7 C 12,2 C 44,3 km/h
O (6 Bft)
0,00 %
Durchschnitt _ 9,5 C 52 % 1024,7 hPa #0,0 l/m 13,6 km/h (3 Bft) O-SO - #1:45 h #0,000 mm 2,0 UV-I 197 W/m -0,1 C 5,6 C 18,6 km/h (3 Bft) 0,00 %